[[{"header":{"parameterUnit":"m.s-1","parameterCategory":1,"la1":30.2991,"la2":30.254,"lo1":-89.0895,"lo2":-89.0444,"dy":0.0017,"dx":0.0017,"nx":28,"ny":28,"refTime":"2024-03-23T03:00:00:Z","depth":0,"parameterNumber":2,"parameterNumberName":"U-component_of_WINDS"},"data":[0,0,0,0,0,0,0,0,0,0,0,0,0,0,0,0,0,0,0,0,0,0,0,0,0,0,0,0,0,0,0,0,0,0,0,0,0,0,0,0,0,0,0,0,0,0,0,0,0,0,0,0,0,0,0,0,0,0,-4.2927,-4.2928,0,-4.302,-4.3021,-4.3022,-4.2888,-4.2883,-4.2878,-4.2874,-4.2972,-4.2979,-4.2986,0,0,0,0,0,0,0,0,0,0,0,0,0,-4.2634,-4.264,-4.2927,-4.2928,-4.2929,-4.302,-4.3021,-4.3022,-4.2889,-4.2883,-4.2877,-4.2872,-4.297,-4.2978,-4.2987,0,0,0,0,0,0,0,0,0,0,0,0,0,-4.2747,-4.2642,-4.2926,-4.2873,-4.2869,-4.3019,-4.3021,-4.3022,-4.289,-4.2883,-4.2875,-4.2869,-4.2967,-4.2978,-4.2988,-4.3196,0,0,-4.302,-4.3025,0,0,0,0,0,0,0,0,-4.2741,-4.2758,-4.288,-4.2877,-4.2873,-4.2935,-4.2953,-4.3081,-4.2892,-4.2882,-4.2874,-4.2865,-4.2966,-4.2976,-4.3009,-4.32,-4.3205,-4.3021,-4.3028,-4.3032,-4.3035,0,0,0,0,0,0,0,-4.2733,-4.2754,-4.2963,-4.2882,-4.2878,-4.2845,-4.2853,-4.2977,-4.2963,-4.2882,-4.2873,-4.2885,-4.2963,-4.2999,-4.3011,-4.3206,-4.3021,-4.303,-4.3037,-4.3041,-4.3568,-4.3576,0,0,0,0,0,0,-4.2732,-4.2748,-4.296,-4.2966,-4.2788,-4.2856,-4.2865,-4.2922,-4.2961,-4.296,-4.2891,-4.2879,-4.2985,-4.2998,-4.3014,-4.3257,-4.3032,-4.3042,-4.3048,-4.3561,-4.357,-4.3578,0,0,0,0,0,0,-4.2726,-4.2752,-4.2957,-4.2854,-4.2878,-4.2868,-4.2934,-4.2928,-4.2964,-4.2968,-4.2965,-4.2932,-4.298,-4.2999,-4.315,-4.3259,-4.3047,-4.3056,-4.3552,-4.3564,-4.3574,-4.3748,0,0,0,0,0,0,-4.2718,-4.2751,-4.283,-4.2857,-4.2884,-4.3093,-4.294,-4.2935,-4.2983,-4.2967,-4.3005,-4.3004,-4.2976,-4.3135,-4.3161,-4.327,-4.3065,-4.3542,-4.3557,-4.3571,-4.3733,-4.3764,-4.3791,0,0,0,0,0,-4.2708,-4.2877,-4.2835,-4.2861,-4.2983,-4.3099,-4.3115,-4.3077,-4.2992,-4.3071,-4.3073,-4.3003,-4.3243,-4.3152,-4.318,-4.3294,-4.3535,-4.3553,-4.357,-4.372,-4.3758,-4.3791,0,0,0,0,0,0,-4.2865,-4.2879,-4.2833,-4.3015,-4.3057,-4.3076,-4.3176,-4.312,-4.3187,-4.317,-4.3121,-4.3131,-4.3293,-4.3308,-4.3207,-4.3495,-4.3375,-4.3398,-4.3479,-4.3516,-4.3545,-4.3538,-4.3073,0,0,0,0,0,-4.292,-4.3013,-4.3021,-4.3181,-4.3204,-4.3186,-4.3236,-4.3203,-4.3244,-4.3262,-4.3275,-4.3318,-4.3402,-4.346,-4.3538,-4.3733,-4.3739,-4.3825,-4.3854,-4.3878,-4.39,-4.4002,-4.404,-4.3635,-4.3635,-4.3635,0,0,-4.3036,-4.3055,-4.3118,-4.3213,-4.3241,-4.3338,-4.3202,-4.3312,-4.3383,-4.3279,-4.3422,-4.3433,-4.3478,-4.3652,-4.3729,-4.367,-4.4012,-4.39,-4.3919,-4.3928,-4.4023,-4.4062,-4.4096,-4.3647,-4.3645,-4.3643,0,0,-4.3297,-4.3322,-4.3456,-4.3486,-4.353,-4.3516,-4.3549,-4.3576,-4.3579,-4.3722,-4.3644,-4.3728,-4.3876,-4.391,-4.3948,-4.4217,-4.4155,-4.4244,-4.4397,-4.4497,-4.4529,-4.4557,-4.4653,-4.4687,-4.4265,-4.4265,-4.4266,0,-4.3436,-4.3579,-4.3533,-4.3647,-4.369,-4.3597,-4.3733,-4.3765,-4.3833,-4.3865,-4.3796,-4.3977,-4.4001,-4.4181,-4.4246,-4.4279,-4.4314,-4.4241,-4.4528,-4.4556,-4.4581,-4.4672,-4.4708,-4.4276,-4.4275,-4.4274,-4.4273,0,-4.3748,-4.3848,-4.3951,-4.4017,-4.4071,-4.4196,-4.4168,-4.4229,-4.4191,-4.4184,-4.4329,-4.4354,-4.4435,-4.4474,-4.4439,-4.4649,-4.461,-4.4536,-4.4414,-4.4631,-4.4715,-4.4749,-4.4291,-4.4287,-4.4284,-4.4281,0,0,-4.4113,-4.4148,-4.4187,-4.4214,-4.4254,-4.433,-4.4449,-4.4526,-4.4579,-4.4628,-4.4726,-4.4851,-4.4781,-4.4823,-4.479,-4.4878,-4.5088,-4.4793,-4.4793,-4.4846,-4.5319,-4.5375,-4.5415,-4.5046,-4.5053,-4.5058,-4.5315,0,-4.4373,-4.4578,-4.4538,-4.4739,-4.4829,-4.474,-4.4844,-4.4879,-4.4875,-4.4952,-4.4947,-4.5036,-4.4938,-4.4963,-4.5045,-4.5045,-4.5183,-4.5026,-4.5137,-4.5142,-4.513,-4.5459,-4.552,-4.5761,-4.5347,-4.5353,-4.5357,0,-4.4705,-4.4763,-4.4972,-4.4994,-4.503,-4.5124,-4.519,-4.5264,-4.5301,-4.5292,-4.5337,-4.5286,-4.5404,-4.5279,-4.544,-4.5334,-4.5377,-4.5383,-4.5392,-4.5401,-4.5263,-4.5478,-4.5837,-4.5874,-4.5408,-4.5404,-4.5401,0,-4.4949,-4.5081,-4.5222,-4.5248,-4.5277,-4.5345,-4.536,-4.539,-4.5438,-4.5495,-4.5525,-4.5596,-4.5635,-4.5691,-4.566,-4.5572,-4.5825,-4.5699,-4.5821,-4.5822,-4.588,-4.5877,-4.6251,-4.5907,-4.5906,-4.5906,-4.5905,0,-4.5244,-4.5375,-4.5331,-4.5419,-4.5562,-4.5514,-4.5658,-4.5663,-4.5689,-4.5775,-4.5703,-4.5785,-4.5739,-4.5817,-4.5794,-4.5929,-4.5948,-4.5943,-4.5936,-4.595,-4.5951,-4.5978,-4.5961,-4.5915,-4.5913,-4.5911,-4.591,0,-4.5543,-4.5519,-4.5666,-4.5681,-4.5687,-4.5792,-4.5804,-4.5885,-4.5874,-4.5983,-4.6006,-4.599,-4.6078,-4.6052,-4.6149,-4.6132,-4.6304,-4.6275,-4.6291,-4.6284,-4.6407,-4.6396,-4.6812,-4.6864,-4.6487,-4.6491,-4.6494,0,-4.5733,-4.5831,-4.5854,-4.5906,-4.5926,-4.6011,-4.6058,-4.6013,-4.6066,-4.6113,-4.6188,-4.6269,-4.6332,-4.6477,-4.6474,-4.6546,-4.6518,-4.6659,-4.6529,-4.6539,-4.6519,-4.6514,-4.6523,-4.6685,-4.669,-4.6693,-4.6696,0,-4.6072,-4.6054,-4.6124,-4.6191,-4.6248,-4.6299,-4.6342,-4.6389,-4.6347,-4.6409,-4.6497,-4.6546,-4.6642,-4.6723,-4.6788,-4.6803,-4.6744,-4.6737,-4.6768,-4.6785,-4.679,-4.6788,-4.6362,-4.6728,-4.6725,-4.6722,-4.6721,-4.6719,-4.6321,-4.6404,-4.6432,-4.6512,-4.654,-4.6581,-4.6657,-4.6654,-4.6726,-4.68,-4.6769,-4.6871,-4.6902,-4.6983,-4.7006,-4.7085,-4.7031,-4.7077,-4.7089,-4.7101,-4.7116,-4.6777,-4.7096,-4.7095,-4.7095,-4.7094,-4.7093,0,-4.6656,-4.6669,-4.6743,-4.6805,-4.6868,-4.6803,-4.6847,-4.6904,-4.6993,-4.7027,-4.7089,-4.7189,-4.7267,-4.7268,-4.734,-4.7402,-4.7376,-4.7423,-4.7418,-4.7422,-4.7161,-4.7126,-4.7442,-4.7442,-4.7442,-4.7442,-4.7442,-4.7442,-4.6838,-4.6972,-4.6958,-4.7105,-4.7116,-4.7214,-4.7244,-4.7282,-4.7308,-4.7423,-4.7486,-4.7486,-4.7506,-4.7578,-4.7646,-4.7644,-4.7674,-4.7731,-4.7719,-4.7475,-4.7441,-4.7408,-4.7374,-4.7738,-4.7738,-4.7973,-4.7975,-4.7977]},{"header":{"parameterUnit":"m.s-1","parameterCategory":1,"la1":30.2991,"la2":30.254,"lo1":-89.0895,"lo2":-89.0444,"dy":0.0017,"dx":0.0017,"nx":28,"ny":28,"refTime":"2024-03-23T03:00:00:Z","depth":0,"parameterNumber":3,"parameterNumberName":"V-component_of_WINDS"},"data":[0,0,0,0,0,0,0,0,0,0,0,0,0,0,0,0,0,0,0,0,0,0,0,0,0,0,0,0,0,0,0,0,0,0,0,0,0,0,0,0,0,0,0,0,0,0,0,0,0,0,0,0,0,0,0,0,0,0,-3.1485,-3.1486,0,-3.1593,-3.1594,-3.1595,-3.158,-3.1578,-3.1576,-3.1574,-3.1684,-3.1689,-3.1693,0,0,0,0,0,0,0,0,0,0,0,0,0,-3.1265,-3.1269,-3.1485,-3.1487,-3.1488,-3.1593,-3.1594,-3.1596,-3.158,-3.1578,-3.1576,-3.1574,-3.1683,-3.1688,-3.1694,0,0,0,0,0,0,0,0,0,0,0,0,0,-3.1365,-3.127,-3.1485,-3.1493,-3.1495,-3.1592,-3.1594,-3.1596,-3.1581,-3.1578,-3.1575,-3.1573,-3.1681,-3.1688,-3.1695,-3.1791,0,0,-3.1716,-3.1719,0,0,0,0,0,0,0,0,-3.1359,-3.1373,-3.149,-3.1492,-3.1495,-3.157,-3.1557,-3.1661,-3.1581,-3.1548,-3.1574,-3.1571,-3.1649,-3.1658,-3.1684,-3.1796,-3.1801,-3.1716,-3.172,-3.1723,-3.1725,0,0,0,0,0,0,0,-3.1352,-3.1368,-3.1528,-3.1492,-3.1495,-3.149,-3.1502,-3.1576,-3.1612,-3.1551,-3.155,-3.1563,-3.1649,-3.1677,-3.1686,-3.1803,-3.1716,-3.1722,-3.1726,-3.1729,-3.1998,-3.2,0,0,0,0,0,0,-3.1344,-3.1363,-3.1524,-3.1531,-3.1419,-3.1496,-3.1509,-3.1549,-3.1611,-3.1618,-3.1565,-3.1562,-3.1667,-3.1678,-3.169,-3.1806,-3.1723,-3.173,-3.1734,-3.1995,-3.1998,-3.2001,0,0,0,0,0,0,-3.1339,-3.1358,-3.152,-3.1447,-3.1467,-3.1503,-3.1548,-3.1552,-3.158,-3.1622,-3.1628,-3.1587,-3.1665,-3.1681,-3.1766,-3.181,-3.1733,-3.1739,-3.1991,-3.1996,-3.2,-3.204,0,0,0,0,0,0,-3.1333,-3.1357,-3.1394,-3.1448,-3.1471,-3.1594,-3.155,-3.1556,-3.1592,-3.1589,-3.1645,-3.1651,-3.1664,-3.1756,-3.1773,-3.1818,-3.1745,-3.1987,-3.1993,-3.1998,-3.2035,-3.2045,-3.2054,0,0,0,0,0,-3.1325,-3.1402,-3.1396,-3.1416,-3.1519,-3.1597,-3.161,-3.1624,-3.1596,-3.1634,-3.166,-3.165,-3.1802,-3.1764,-3.1784,-3.1832,-3.1985,-3.1991,-3.1998,-3.203,-3.2043,-3.2054,0,0,0,0,0,0,-3.1353,-3.1409,-3.1404,-3.15,-3.1544,-3.1594,-3.1642,-3.1637,-3.169,-3.1684,-3.1699,-3.1711,-3.1797,-3.1823,-3.178,-3.1927,-3.1889,-3.19,-3.1908,-3.192,-3.1929,-3.1921,-3.175,0,0,0,0,0,-3.137,-3.143,-3.1475,-3.1556,-3.1578,-3.1606,-3.1641,-3.1647,-3.1693,-3.1712,-3.1744,-3.1789,-3.1847,-3.1885,-3.1941,-3.2038,-3.2049,-3.2081,-3.209,-3.2098,-3.2107,-3.2159,-3.2173,-3.2023,-3.2023,-3.2023,0,0,-3.1407,-3.1445,-3.1482,-3.1562,-3.1597,-3.1657,-3.1622,-3.1688,-3.1732,-3.1722,-3.1804,-3.1829,-3.188,-3.1971,-3.2013,-3.1995,-3.2151,-3.2106,-3.2112,-3.2117,-3.2167,-3.2181,-3.2194,-3.2028,-3.2027,-3.2026,0,0,-3.1505,-3.154,-3.161,-3.1645,-3.1698,-3.1716,-3.1732,-3.1783,-3.18,-3.1882,-3.1875,-3.1928,-3.2028,-3.2064,-3.2095,-3.2203,-3.2195,-3.2221,-3.2272,-3.2322,-3.2334,-3.2344,-3.2382,-3.2395,-3.223,-3.223,-3.223,0,-3.1544,-3.1634,-3.1647,-3.1713,-3.1748,-3.174,-3.1811,-3.1844,-3.1912,-3.1936,-3.1915,-3.2039,-3.2073,-3.2172,-3.2198,-3.2224,-3.2243,-3.2215,-3.2331,-3.2342,-3.2351,-3.2387,-3.2402,-3.2233,-3.2233,-3.2232,-3.2232,0,-3.1679,-3.1742,-3.1792,-3.1857,-3.1898,-3.1966,-3.1988,-3.2027,-3.203,-3.205,-3.2133,-3.2173,-3.2235,-3.2259,-3.2263,-3.2358,-3.2345,-3.2328,-3.229,-3.2368,-3.2402,-3.2416,-3.2237,-3.2236,-3.2235,-3.2234,0,0,-3.1798,-3.1868,-3.1886,-3.1915,-3.1972,-3.202,-3.2087,-3.2148,-3.2181,-3.2228,-3.2283,-3.2367,-3.235,-3.2386,-3.2393,-3.2437,-3.2519,-3.2414,-3.2415,-3.2431,-3.2625,-3.2637,-3.2653,-3.2513,-3.2516,-3.2518,-3.262,0,-3.19,-3.2019,-3.2031,-3.2136,-3.2194,-3.2186,-3.2244,-3.2285,-3.2305,-3.2356,-3.2377,-3.2436,-3.241,-3.2431,-3.2475,-3.25,-3.2558,-3.2492,-3.2565,-3.2567,-3.2552,-3.2671,-3.2685,-3.278,-3.2634,-3.2636,-3.2638,0,-3.2036,-3.2085,-3.2197,-3.2243,-3.2268,-3.232,-3.2376,-3.2425,-3.247,-3.2481,-3.252,-3.252,-3.2588,-3.2547,-3.264,-3.2595,-3.2625,-3.2642,-3.2646,-3.2653,-3.2607,-3.2681,-3.281,-3.2824,-3.2659,-3.2657,-3.2656,0,-3.211,-3.2205,-3.2283,-3.2308,-3.2365,-3.2401,-3.2427,-3.2469,-3.2504,-3.2553,-3.2576,-3.2632,-3.2663,-3.2705,-3.2721,-3.269,-3.2812,-3.2773,-3.2823,-3.2822,-3.2849,-3.2847,-3.2984,-3.2869,-3.2869,-3.2869,-3.2869,0,-3.2223,-3.2291,-3.2317,-3.2365,-3.2441,-3.2453,-3.2527,-3.2551,-3.2588,-3.264,-3.2637,-3.2686,-3.2703,-3.2755,-3.2767,-3.2841,-3.2855,-3.2865,-3.2868,-3.2866,-3.2864,-3.2885,-3.2879,-3.2873,-3.2872,-3.2871,-3.287,0,-3.2319,-3.234,-3.2424,-3.247,-3.2484,-3.2537,-3.2576,-3.2622,-3.264,-3.2706,-3.2722,-3.2751,-3.2811,-3.283,-3.2903,-3.2911,-3.2997,-3.2995,-3.2982,-3.2982,-3.3031,-3.3025,-3.3186,-3.3207,-3.3079,-3.308,-3.3081,0,-3.2389,-3.2441,-3.2492,-3.2527,-3.2553,-3.2609,-3.2644,-3.2658,-3.2695,-3.2749,-3.2789,-3.2848,-3.2896,-3.2992,-3.3019,-3.3074,-3.3072,-3.3124,-3.308,-3.3076,-3.3072,-3.3068,-3.3073,-3.3133,-3.3134,-3.3135,-3.3136,0,-3.2511,-3.2518,-3.257,-3.2625,-3.2667,-3.2711,-3.2753,-3.2781,-3.2801,-3.2843,-3.2904,-3.2941,-3.3014,-3.3073,-3.3128,-3.3154,-3.3148,-3.3149,-3.3164,-3.3162,-3.3152,-3.3157,-3.3004,-3.3146,-3.3145,-3.3144,-3.3143,-3.3143,-3.2596,-3.2641,-3.2684,-3.2741,-3.2774,-3.2813,-3.2857,-3.2881,-3.2932,-3.2993,-3.2998,-3.3063,-3.3105,-3.3179,-3.3207,-3.3258,-3.3243,-3.3264,-3.3269,-3.3274,-3.3277,-3.3144,-3.3268,-3.3268,-3.3268,-3.3268,-3.3267,0,-3.2717,-3.2743,-3.2796,-3.2854,-3.2899,-3.2889,-3.2935,-3.2972,-3.303,-3.307,-3.3116,-3.3186,-3.3242,-3.3273,-3.3329,-3.3363,-3.3362,-3.3377,-3.3375,-3.338,-3.3288,-3.327,-3.3378,-3.3377,-3.3377,-3.3377,-3.3377,-3.3377,-3.2785,-3.286,-3.2872,-3.2963,-3.2989,-3.3053,-3.308,-3.3115,-3.3147,-3.3224,-3.327,-3.329,-3.3326,-3.3384,-3.3435,-3.3442,-3.3463,-3.348,-3.3486,-3.3399,-3.3387,-3.3376,-3.3359,-3.3484,-3.3484,-3.3574,-3.3575,-3.3575]}]]